Showing default

EZIE-C, 63249

Orbit data source: Space-Track

EZIE-C, 63249 is an American payload satellite in SSO that was launched on Sat, 15 Mar 2025 UTC via an FALCON 9 launch vehicle from the Air Force Western Test Range (AFWTR). Payload-class satellites include a variety of spacecraft equipped with specific instruments for various scientific and technological missions. These include communications satellites like Starlink; space stations such as the ISS; scientific satellites like the Hubble; Earth observation satellites from companies like Planet Labs, Umbra, and HawkEye 360; GPS; miniature CubeSats for education and research; and military/defense satellites.

Loading next visibility...
Identifier
63249, 2025-052AR
Orbit
SSO
Country
Flag of USUS
Related business
Manufacturer
APL
Mission
Operational Civil Science
Bus & Motor
CUBESAT 6U, Unknown motor
Mass
~10 kg wet, ~10 kg dry
Launch date (UTC)
2025-03-15 (1 year ago)
Launch vehicle
FALCON 9
Launch site
Air Force Western Test Range (AFWTR)
Object type
Payload
Rocket body
Debris
Shape & HBR
Box, 0.4 m
Radar Cross Section
0.035 m², Medium (>0.1 m² and < 1m²)

Expand to show TLE details & history
Last TLE update: 19 hours ago

TLE from 19 hours ago
0 EZIE-C
1 63249U 25052AR  26206.53071211  .00003775  00000-0  32832-3 0  9997
2 63249  97.6845  97.9594 0005216  83.2142 276.9674 14.97552991 74400
Epoch: 2026-07-25T12:44Z
TLE epoch observation values (Epoch: 2026-07-25T12:44:13.526Z)
Latitude
0.00003°
Longitude
-36.33863°
Altitude
577.073 km
Speed
7.572 km/s
True Right ascension
06h 31m 50s
True Declination
0° 00' 00"
Sunlit
Object was in daylight at epoch
Visualization orbit readout
Latitude
Unknown
Longitude
Unknown
Altitude
Unknown
Speed
Unknown
Apparent Right ascension
Unknown
Apparent Declination
Unknown
Sunlit
N/A
Visualization observer readout
Local Sidereal Time
21:09:55
Azimuth
Unknown
Elevation
Unknown
Doppler factor
Unknown
Orbital elements
Apogee altitude
575.093 km
Perigee altitude
567.843 km
Semi-major axis
6,949.605 km
Eccentricity
0.00052
Inclination
97.6845°
RAAN
97.9594°
Arg. of periapsis
83.2142°
True anomaly
276.90807°
Mean anomaly
276.9674°
Eccentric anomaly
276.93773°
Mean motion
3.7463 °/min
Orbital period
96.09 mins
BSTAR
0.00032832
Loading maneuver chart data...
Computing Atmospheric mass density...
Loading historical data...
Loading historical data...
Loading historical data...
Loading historical data...
Loading historical data...
Loading historical data...
Loading historical data...

Documentation

Showing up to 5 results
|